Year,Month,Day,Hour,Minute,Value (Times are PST for temperature in C)
2008,03,23,00,00,9.60
2008,03,23,00,01,9.60
2008,03,23,00,02,9.60
2008,03,23,00,03,9.60
2008,03,23,00,04,9.60
2008,03,23,00,05,9.60
2008,03,23,00,06,9.60
2008,03,23,00,07,9.60
2008,03,23,00,08,9.60
2008,03,23,00,09,9.60
2008,03,23,00,10,9.60
2008,03,23,00,11,9.60
2008,03,23,00,12,9.60
2008,03,23,00,13,9.60
2008,03,23,00,14,9.60
2008,03,23,00,15,9.60
2008,03,23,00,16,9.60
2008,03,23,00,17,9.60
2008,03,23,00,18,9.60
2008,03,23,00,19,9.60
2008,03,23,00,20,9.60
2008,03,23,00,21,9.60
2008,03,23,00,22,9.60
2008,03,23,00,23,9.50
2008,03,23,00,24,9.50
2008,03,23,00,25,9.50
2008,03,23,00,26,9.60
2008,03,23,00,27,9.50
2008,03,23,00,28,9.50
2008,03,23,00,29,9.60
2008,03,23,00,30,9.50
2008,03,23,00,31,9.50
2008,03,23,00,32,9.50
2008,03,23,00,33,9.40
2008,03,23,00,34,9.40
2008,03,23,00,35,9.40
2008,03,23,00,36,9.40
2008,03,23,00,37,9.40
2008,03,23,00,38,9.50
2008,03,23,00,39,9.50
2008,03,23,00,40,9.60
2008,03,23,00,41,9.60
2008,03,23,00,42,9.70
2008,03,23,00,43,9.70
2008,03,23,00,44,9.70
2008,03,23,00,45,9.80
2008,03,23,00,46,9.90
2008,03,23,00,47,10.00
2008,03,23,00,48,10.00
2008,03,23,00,49,10.10
2008,03,23,00,50,10.10
2008,03,23,00,51,10.10
2008,03,23,00,52,10.20
2008,03,23,00,53,10.20
2008,03,23,00,54,10.30
2008,03,23,00,55,10.30
2008,03,23,00,56,10.30
2008,03,23,00,57,10.30
2008,03,23,00,58,10.20
2008,03,23,00,59,10.20
2008,03,23,01,00,10.20
2008,03,23,01,01,10.20
2008,03,23,01,02,10.20
2008,03,23,01,03,10.10
2008,03,23,01,04,10.10
2008,03,23,01,05,10.00
2008,03,23,01,06,10.00
2008,03,23,01,07,9.90
2008,03,23,01,08,9.90
2008,03,23,01,09,9.80
2008,03,23,01,10,9.80
2008,03,23,01,11,9.70
2008,03,23,01,12,9.70
2008,03,23,01,13,9.60
2008,03,23,01,14,9.60
2008,03,23,01,15,9.50
2008,03,23,01,16,9.40
2008,03,23,01,17,9.40
2008,03,23,01,18,9.30
2008,03,23,01,19,9.20
2008,03,23,01,20,9.20
2008,03,23,01,21,9.10
2008,03,23,01,22,9.10
2008,03,23,01,23,9.00
2008,03,23,01,24,9.00
2008,03,23,01,25,9.00
2008,03,23,01,26,8.90
2008,03,23,01,27,8.90
2008,03,23,01,28,8.90
2008,03,23,01,29,8.80
2008,03,23,01,30,8.80
2008,03,23,01,31,8.80
2008,03,23,01,32,8.80
2008,03,23,01,33,8.80
2008,03,23,01,34,8.70
2008,03,23,01,35,8.70
2008,03,23,01,36,8.70
2008,03,23,01,37,8.70
2008,03,23,01,38,8.70
2008,03,23,01,39,8.70
2008,03,23,01,40,8.60
2008,03,23,01,41,8.60
2008,03,23,01,42,8.50
2008,03,23,01,43,8.50
2008,03,23,01,44,8.40
2008,03,23,01,45,8.40
2008,03,23,01,46,8.40
2008,03,23,01,47,8.40
2008,03,23,01,48,8.30
2008,03,23,01,49,8.30
2008,03,23,01,50,8.30
2008,03,23,01,51,8.30
2008,03,23,01,52,8.20
2008,03,23,01,53,8.20
2008,03,23,01,54,8.20
2008,03,23,01,55,8.10
2008,03,23,01,56,8.10
2008,03,23,01,57,8.00
2008,03,23,01,58,8.00
2008,03,23,01,59,7.90
2008,03,23,02,00,7.90
2008,03,23,02,01,7.80
2008,03,23,02,02,7.80
2008,03,23,02,03,7.80
2008,03,23,02,04,7.80
2008,03,23,02,05,7.80
2008,03,23,02,06,7.80
2008,03,23,02,07,7.80
2008,03,23,02,08,7.80
2008,03,23,02,09,7.80
2008,03,23,02,10,7.80
2008,03,23,02,11,7.70
2008,03,23,02,12,7.70
2008,03,23,02,13,7.70
2008,03,23,02,14,7.70
2008,03,23,02,15,7.70
2008,03,23,02,16,7.80
2008,03,23,02,17,7.80
2008,03,23,02,18,7.80
2008,03,23,02,19,7.80
2008,03,23,02,20,7.80
2008,03,23,02,21,7.80
2008,03,23,02,22,7.80
2008,03,23,02,23,7.80
2008,03,23,02,24,7.70
2008,03,23,02,25,7.70
2008,03,23,02,26,7.70
2008,03,23,02,27,7.70
2008,03,23,02,28,7.60
2008,03,23,02,29,7.60
2008,03,23,02,30,7.50
2008,03,23,02,31,7.50
2008,03,23,02,32,7.40
2008,03,23,02,33,7.40
2008,03,23,02,34,7.30
2008,03,23,02,35,7.30
2008,03,23,02,36,7.30
2008,03,23,02,37,7.20
2008,03,23,02,38,7.20
2008,03,23,02,39,7.20
2008,03,23,02,40,7.20
2008,03,23,02,41,7.20
2008,03,23,02,42,7.20
2008,03,23,02,43,7.20
2008,03,23,02,44,7.20
2008,03,23,02,45,7.20
2008,03,23,02,46,7.20
2008,03,23,02,47,7.20
2008,03,23,02,48,7.10
2008,03,23,02,49,7.10
2008,03,23,02,50,7.10
2008,03,23,02,51,7.00
2008,03,23,02,52,7.00
2008,03,23,02,53,6.90
2008,03,23,02,54,6.90
2008,03,23,02,55,6.80
2008,03,23,02,56,6.80
2008,03,23,02,57,6.80
2008,03,23,02,58,6.80
2008,03,23,02,59,6.70
2008,03,23,03,00,6.70
2008,03,23,03,01,6.70
2008,03,23,03,02,6.60
2008,03,23,03,03,6.60
2008,03,23,03,04,6.50
2008,03,23,03,05,6.50
2008,03,23,03,06,6.40
2008,03,23,03,07,6.40
2008,03,23,03,08,6.50
2008,03,23,03,09,6.50
2008,03,23,03,10,6.50
2008,03,23,03,11,6.50
2008,03,23,03,12,6.50
2008,03,23,03,13,6.40
2008,03,23,03,14,6.40
2008,03,23,03,15,6.30
2008,03,23,03,16,6.30
2008,03,23,03,17,6.30
2008,03,23,03,18,6.20
2008,03,23,03,19,6.20
2008,03,23,03,20,6.20
2008,03,23,03,21,6.20
2008,03,23,03,22,6.20
2008,03,23,03,23,6.20
2008,03,23,03,24,6.20
2008,03,23,03,25,6.20
2008,03,23,03,26,6.20
2008,03,23,03,27,6.20
2008,03,23,03,28,6.20
2008,03,23,03,29,6.20
2008,03,23,03,30,6.20
2008,03,23,03,31,6.20
2008,03,23,03,32,6.20
2008,03,23,03,33,6.20
2008,03,23,03,34,6.20
2008,03,23,03,35,6.20
2008,03,23,03,36,6.20
2008,03,23,03,37,6.20
2008,03,23,03,38,6.20
2008,03,23,03,39,6.20
2008,03,23,03,40,6.20
2008,03,23,03,41,6.30
2008,03,23,03,42,6.30
2008,03,23,03,43,6.30
2008,03,23,03,44,6.30
2008,03,23,03,45,6.30
2008,03,23,03,46,6.20
2008,03,23,03,47,6.20
2008,03,23,03,48,6.20
2008,03,23,03,49,6.20
2008,03,23,03,50,6.20
2008,03,23,03,51,6.20
2008,03,23,03,52,6.20
2008,03,23,03,53,6.20
2008,03,23,03,54,6.10
2008,03,23,03,55,6.10
2008,03,23,03,56,6.10
2008,03,23,03,57,6.20
2008,03,23,03,58,6.20
2008,03,23,03,59,6.20
2008,03,23,04,00,6.20
2008,03,23,04,01,6.20
2008,03,23,04,02,6.20
2008,03,23,04,03,6.20
2008,03,23,04,04,6.20
2008,03,23,04,05,6.20
2008,03,23,04,06,6.20
2008,03,23,04,07,6.20
2008,03,23,04,08,6.20
2008,03,23,04,09,6.20
2008,03,23,04,10,6.20
2008,03,23,04,11,6.20
2008,03,23,04,12,6.20
2008,03,23,04,13,6.20
2008,03,23,04,14,6.20
2008,03,23,04,15,6.20
2008,03,23,04,16,6.20
2008,03,23,04,17,6.20
2008,03,23,04,18,6.20
2008,03,23,04,19,6.20
2008,03,23,04,20,6.20
2008,03,23,04,21,6.20
2008,03,23,04,22,6.20
2008,03,23,04,23,6.20
2008,03,23,04,24,6.20
2008,03,23,04,25,6.30
2008,03,23,04,26,6.30
2008,03,23,04,27,6.40
2008,03,23,04,28,6.30
2008,03,23,04,29,6.30
2008,03,23,04,30,6.30
2008,03,23,04,31,6.30
2008,03,23,04,32,6.30
2008,03,23,04,33,6.30
2008,03,23,04,34,6.30
2008,03,23,04,35,6.30
2008,03,23,04,36,6.30
2008,03,23,04,37,6.20
2008,03,23,04,38,6.20
2008,03,23,04,39,6.20
2008,03,23,04,40,6.20
2008,03,23,04,41,6.20
2008,03,23,04,42,6.10
2008,03,23,04,43,6.10
2008,03,23,04,44,6.10
2008,03,23,04,45,6.10
2008,03,23,04,46,6.10
2008,03,23,04,47,6.00
2008,03,23,04,48,6.00
2008,03,23,04,49,6.00
2008,03,23,04,50,6.00
2008,03,23,04,51,5.90
2008,03,23,04,52,5.90
2008,03,23,04,53,5.90
2008,03,23,04,54,5.90
2008,03,23,04,55,5.90
2008,03,23,04,56,5.90
2008,03,23,04,57,5.90
2008,03,23,04,58,5.90
2008,03,23,04,59,5.90
2008,03,23,05,00,5.80
2008,03,23,05,01,5.80
2008,03,23,05,02,5.80
2008,03,23,05,03,5.80
2008,03,23,05,04,5.80
2008,03,23,05,05,5.70
2008,03,23,05,06,5.70
2008,03,23,05,07,5.70
2008,03,23,05,08,5.70
2008,03,23,05,09,5.70
2008,03,23,05,10,5.70
2008,03,23,05,11,5.70
2008,03,23,05,12,5.70
2008,03,23,05,13,5.70
2008,03,23,05,14,5.70
2008,03,23,05,15,5.70
2008,03,23,05,16,5.70
2008,03,23,05,17,5.70
2008,03,23,05,18,5.70
2008,03,23,05,19,5.60
2008,03,23,05,20,5.60
2008,03,23,05,21,5.60
2008,03,23,05,22,5.60
2008,03,23,05,23,5.60
2008,03,23,05,24,5.60
2008,03,23,05,25,5.60
2008,03,23,05,26,5.60
2008,03,23,05,27,5.60
2008,03,23,05,28,5.60
2008,03,23,05,29,5.60
2008,03,23,05,30,5.60
2008,03,23,05,31,5.60
2008,03,23,05,32,5.60
2008,03,23,05,33,5.70
2008,03,23,05,34,5.70
2008,03,23,05,35,5.70
2008,03,23,05,36,5.60
2008,03,23,05,37,5.70
2008,03,23,05,38,5.60
2008,03,23,05,39,5.60
2008,03,23,05,40,5.60
2008,03,23,05,41,5.60
2008,03,23,05,42,5.60
2008,03,23,05,43,5.60
2008,03,23,05,44,5.60
2008,03,23,05,45,5.60
2008,03,23,05,46,5.60
2008,03,23,05,47,5.60
2008,03,23,05,48,5.60
2008,03,23,05,49,5.60
2008,03,23,05,50,5.60
2008,03,23,05,51,5.60
2008,03,23,05,52,5.60
2008,03,23,05,53,5.60
2008,03,23,05,54,5.50
2008,03,23,05,55,5.50
2008,03,23,05,56,5.50
2008,03,23,05,57,5.50
2008,03,23,05,58,5.50
2008,03,23,05,59,5.50
2008,03,23,06,00,5.50
2008,03,23,06,01,5.50
2008,03,23,06,02,5.50
2008,03,23,06,03,5.50
2008,03,23,06,04,5.40
2008,03,23,06,05,5.40
2008,03,23,06,06,5.40
2008,03,23,06,07,5.40
2008,03,23,06,08,5.40
2008,03,23,06,09,5.40
2008,03,23,06,10,5.40
2008,03,23,06,11,5.40
2008,03,23,06,12,5.40
2008,03,23,06,13,5.30
2008,03,23,06,14,5.30
2008,03,23,06,15,5.30
2008,03,23,06,16,5.30
2008,03,23,06,17,5.30
2008,03,23,06,18,5.30
2008,03,23,06,19,5.30
2008,03,23,06,20,5.30
2008,03,23,06,21,5.30
2008,03,23,06,22,5.30
2008,03,23,06,23,5.30
2008,03,23,06,24,5.30
2008,03,23,06,25,5.30
2008,03,23,06,26,5.30
2008,03,23,06,27,5.30
2008,03,23,06,28,5.30
2008,03,23,06,29,5.30
2008,03,23,06,30,5.30
2008,03,23,06,31,5.30
2008,03,23,06,32,5.30
2008,03,23,06,33,5.20
2008,03,23,06,34,5.20
2008,03,23,06,35,5.20
2008,03,23,06,36,5.20
2008,03,23,06,37,5.20
2008,03,23,06,38,5.30
2008,03,23,06,39,5.30
2008,03,23,06,40,5.30
2008,03,23,06,41,5.30
2008,03,23,06,42,5.30
2008,03,23,06,43,5.30
2008,03,23,06,44,5.30
2008,03,23,06,45,5.40
2008,03,23,06,46,5.40
2008,03,23,06,47,5.40
2008,03,23,06,48,5.30
2008,03,23,06,49,5.30
2008,03,23,06,50,5.30
2008,03,23,06,51,5.30
2008,03,23,06,52,5.30
2008,03,23,06,53,5.30
2008,03,23,06,54,5.30
2008,03,23,06,55,5.40
2008,03,23,06,56,5.40
2008,03,23,06,57,5.40
2008,03,23,06,58,5.40
2008,03,23,06,59,5.40
2008,03,23,07,00,5.40
2008,03,23,07,01,5.40
2008,03,23,07,02,5.40
2008,03,23,07,03,5.40
2008,03,23,07,04,5.30
2008,03,23,07,05,5.30
2008,03,23,07,06,5.30
2008,03,23,07,07,5.30
2008,03,23,07,08,5.30
2008,03,23,07,09,5.20
2008,03,23,07,10,5.20
2008,03,23,07,11,5.10
2008,03,23,07,12,5.10
2008,03,23,07,13,5.10
2008,03,23,07,14,5.10
2008,03,23,07,15,5.10
2008,03,23,07,16,5.10
2008,03,23,07,17,5.00
2008,03,23,07,18,5.00
2008,03,23,07,19,5.00
2008,03,23,07,20,5.00
2008,03,23,07,21,5.00
2008,03,23,07,22,4.90
2008,03,23,07,23,4.90
2008,03,23,07,24,4.90
2008,03,23,07,25,4.90
2008,03,23,07,26,4.80
2008,03,23,07,27,4.80
2008,03,23,07,28,4.80
2008,03,23,07,29,4.80
2008,03,23,07,30,4.70
2008,03,23,07,31,4.70
2008,03,23,07,32,4.70
2008,03,23,07,33,4.70
2008,03,23,07,34,4.70
2008,03,23,07,35,4.60
2008,03,23,07,36,4.60
2008,03,23,07,37,4.60
2008,03,23,07,38,4.50
2008,03,23,07,39,4.50
2008,03,23,07,40,4.50
2008,03,23,07,41,4.40
2008,03,23,07,42,4.40
2008,03,23,07,43,4.30
2008,03,23,07,44,4.30
2008,03,23,07,45,4.30
2008,03,23,07,46,4.20
2008,03,23,07,47,4.20
2008,03,23,07,48,4.20
2008,03,23,07,49,4.10
2008,03,23,07,50,4.10
2008,03,23,07,51,4.10
2008,03,23,07,52,4.10
2008,03,23,07,53,4.10
2008,03,23,07,54,4.10
2008,03,23,07,55,4.10
2008,03,23,07,56,4.10
2008,03,23,07,57,4.10
2008,03,23,07,58,4.20
2008,03,23,07,59,4.20
2008,03,23,08,00,4.20
2008,03,23,08,01,4.20
2008,03,23,08,02,4.20
2008,03,23,08,03,4.20
2008,03,23,08,04,4.20
2008,03,23,08,05,4.20
2008,03,23,08,06,4.30
2008,03,23,08,07,4.30
2008,03,23,08,08,4.30
2008,03,23,08,09,4.30
2008,03,23,08,10,4.30
2008,03,23,08,11,4.30
2008,03,23,08,12,4.40
2008,03,23,08,13,4.40
2008,03,23,08,14,4.40
2008,03,23,08,15,4.50
2008,03,23,08,16,4.50
2008,03,23,08,17,4.50
2008,03,23,08,18,4.60
2008,03,23,08,19,4.60
2008,03,23,08,20,4.60
2008,03,23,08,21,4.60
2008,03,23,08,22,4.70
2008,03,23,08,23,4.70
2008,03,23,08,24,4.70
2008,03,23,08,25,4.80
2008,03,23,08,26,4.80
2008,03,23,08,27,4.80
2008,03,23,08,28,4.80
2008,03,23,08,29,4.80
2008,03,23,08,30,4.80
2008,03,23,08,31,4.80
2008,03,23,08,32,4.70
2008,03,23,08,33,4.70
2008,03,23,08,34,4.60
2008,03,23,08,35,4.50
2008,03,23,08,36,4.40
2008,03,23,08,37,4.40
2008,03,23,08,38,4.30
2008,03,23,08,39,4.20
2008,03,23,08,40,4.20
2008,03,23,08,41,4.10
2008,03,23,08,42,4.10
2008,03,23,08,43,4.10
2008,03,23,08,44,4.10
2008,03,23,08,45,4.10
2008,03,23,08,46,4.10
2008,03,23,08,47,4.10
2008,03,23,08,48,4.00
2008,03,23,08,49,4.00
2008,03,23,08,50,4.00
2008,03,23,08,51,4.00
2008,03,23,08,52,4.00
2008,03,23,08,53,4.00
2008,03,23,08,54,3.90
2008,03,23,08,55,3.90
2008,03,23,08,56,3.90
2008,03,23,08,57,3.90
2008,03,23,08,58,3.90
2008,03,23,08,59,3.90
2008,03,23,09,00,3.90
2008,03,23,09,01,3.90
2008,03,23,09,02,3.90
2008,03,23,09,03,3.90
2008,03,23,09,04,4.00
2008,03,23,09,05,4.00
2008,03,23,09,06,4.10
2008,03,23,09,07,4.20
2008,03,23,09,08,4.20
2008,03,23,09,09,4.30
2008,03,23,09,10,4.40
2008,03,23,09,11,4.50
2008,03,23,09,12,4.60
2008,03,23,09,13,4.70
2008,03,23,09,14,4.80
2008,03,23,09,15,4.90
2008,03,23,09,16,5.10
2008,03,23,09,17,5.10
2008,03,23,09,18,5.20
2008,03,23,09,19,5.30
2008,03,23,09,20,5.30
2008,03,23,09,21,5.40
2008,03,23,09,22,5.50
2008,03,23,09,23,5.60
2008,03,23,09,24,5.60
2008,03,23,09,25,5.70
2008,03,23,09,26,5.70
2008,03,23,09,27,5.70
2008,03,23,09,28,5.70
2008,03,23,09,29,5.70
2008,03,23,09,30,5.80
2008,03,23,09,31,5.80
2008,03,23,09,32,5.80
2008,03,23,09,33,5.80
2008,03,23,09,34,5.90
2008,03,23,09,35,5.90
2008,03,23,09,36,6.00
2008,03,23,09,37,6.10
2008,03,23,09,38,6.10
2008,03,23,09,39,6.20
2008,03,23,09,40,6.20
2008,03,23,09,41,6.20
2008,03,23,09,42,6.30
2008,03,23,09,43,6.40
2008,03,23,09,44,6.50
2008,03,23,09,45,6.60
2008,03,23,09,46,6.70
2008,03,23,09,47,6.70
2008,03,23,09,48,6.80
2008,03,23,09,49,6.80
2008,03,23,09,50,6.80
2008,03,23,09,51,6.90
2008,03,23,09,52,7.00
2008,03,23,09,53,7.00
2008,03,23,09,54,7.10
2008,03,23,09,55,7.20
2008,03,23,09,56,7.20
2008,03,23,09,57,7.20
2008,03,23,09,58,7.20
2008,03,23,09,59,7.10
2008,03,23,10,00,7.00
2008,03,23,10,01,6.90
2008,03,23,10,02,6.90
2008,03,23,10,03,6.90
2008,03,23,10,04,6.90
2008,03,23,10,05,6.90
2008,03,23,10,06,6.90
2008,03,23,10,07,6.90
2008,03,23,10,08,6.90
2008,03,23,10,09,6.90
2008,03,23,10,10,6.90
2008,03,23,10,11,6.90
2008,03,23,10,12,6.90
2008,03,23,10,13,6.80
2008,03,23,10,14,6.80
2008,03,23,10,15,6.80
2008,03,23,10,16,6.80
2008,03,23,10,17,6.90
2008,03,23,10,18,6.90
2008,03,23,10,19,6.90
2008,03,23,10,20,7.00
2008,03,23,10,21,7.00
2008,03,23,10,22,7.10
2008,03,23,10,23,7.10
2008,03,23,10,24,7.20
2008,03,23,10,25,7.20
2008,03,23,10,26,7.20
2008,03,23,10,27,7.30
2008,03,23,10,28,7.30
2008,03,23,10,29,7.40
2008,03,23,10,30,7.40
2008,03,23,10,31,7.50
2008,03,23,10,32,7.60
2008,03,23,10,33,7.60
2008,03,23,10,34,7.60
2008,03,23,10,35,7.60
2008,03,23,10,36,7.70
2008,03,23,10,37,7.70
2008,03,23,10,38,7.70
2008,03,23,10,39,7.80
2008,03,23,10,40,7.80
2008,03,23,10,41,7.90
2008,03,23,10,42,7.90
2008,03,23,10,43,7.90
2008,03,23,10,44,7.90
2008,03,23,10,45,7.90
2008,03,23,10,46,7.90
2008,03,23,10,47,7.90
2008,03,23,10,48,7.90
2008,03,23,10,49,7.90
2008,03,23,10,50,7.90
2008,03,23,10,51,7.90
2008,03,23,10,52,7.90
2008,03,23,10,53,7.90
2008,03,23,10,54,7.90
2008,03,23,10,55,7.90
2008,03,23,10,56,7.90
2008,03,23,10,57,7.90
2008,03,23,10,58,8.00
2008,03,23,10,59,8.00
2008,03,23,11,00,8.10
2008,03,23,11,01,8.10
2008,03,23,11,02,8.10
2008,03,23,11,03,8.20
2008,03,23,11,04,8.30
2008,03,23,11,05,8.30
2008,03,23,11,06,8.30
2008,03,23,11,07,8.30
2008,03,23,11,08,8.20
2008,03,23,11,09,8.20
2008,03,23,11,10,8.10
2008,03,23,11,11,8.10
2008,03,23,11,12,8.10
2008,03,23,11,13,8.00
2008,03,23,11,14,7.90
2008,03,23,11,15,7.90
2008,03,23,11,16,7.90
2008,03,23,11,17,7.90
2008,03,23,11,18,7.80
2008,03,23,11,19,7.80
2008,03,23,11,20,7.90
2008,03,23,11,21,7.90
2008,03,23,11,22,7.90
2008,03,23,11,23,8.00
2008,03,23,11,24,8.00
2008,03,23,11,25,8.10
2008,03,23,11,26,8.10
2008,03,23,11,27,8.10
2008,03,23,11,28,8.10
2008,03,23,11,29,8.10
2008,03,23,11,30,8.10
2008,03,23,11,31,8.10
2008,03,23,11,32,8.10
2008,03,23,11,33,8.10
2008,03,23,11,34,8.00
2008,03,23,11,35,7.90
2008,03,23,11,36,7.90
2008,03,23,11,37,7.70
2008,03,23,11,38,7.70
2008,03,23,11,39,7.60
2008,03,23,11,40,7.50
2008,03,23,11,41,7.50
2008,03,23,11,42,7.40
2008,03,23,11,43,7.30
2008,03,23,11,44,7.30
2008,03,23,11,45,7.30
2008,03,23,11,46,7.30
2008,03,23,11,47,7.30
2008,03,23,11,48,7.30
2008,03,23,11,49,7.30
2008,03,23,11,50,7.30
2008,03,23,11,51,7.30
2008,03,23,11,52,7.40
2008,03,23,11,53,7.40
2008,03,23,11,54,7.50
2008,03,23,11,55,7.60
2008,03,23,11,56,7.60
2008,03,23,11,57,7.70
2008,03,23,11,58,7.60
2008,03,23,11,59,7.60
2008,03,23,12,00,7.60
2008,03,23,12,01,7.50
2008,03,23,12,02,7.50
2008,03,23,12,03,7.50
2008,03,23,12,04,7.50
2008,03,23,12,05,7.50
2008,03,23,12,06,7.50
2008,03,23,12,07,7.50
2008,03,23,12,08,7.40
2008,03,23,12,09,7.40
2008,03,23,12,10,7.40
2008,03,23,12,11,7.40
2008,03,23,12,12,7.40
2008,03,23,12,13,7.40
2008,03,23,12,14,7.40
2008,03,23,12,15,7.40
2008,03,23,12,16,7.40
2008,03,23,12,17,7.40
2008,03,23,12,18,7.50
2008,03,23,12,19,7.50
2008,03,23,12,20,7.60
2008,03,23,12,21,7.60
2008,03,23,12,22,7.60
2008,03,23,12,23,7.70
2008,03,23,12,24,7.70
2008,03,23,12,25,7.70
2008,03,23,12,26,7.70
2008,03,23,12,27,7.60
2008,03,23,12,28,7.60
2008,03,23,12,29,7.60
2008,03,23,12,30,7.60
2008,03,23,12,31,7.60
2008,03,23,12,32,7.60
2008,03,23,12,33,7.60
2008,03,23,12,34,7.60
2008,03,23,12,35,7.60
2008,03,23,12,36,7.60
2008,03,23,12,37,7.60
2008,03,23,12,38,7.60
2008,03,23,12,39,7.50
2008,03,23,12,40,7.50
2008,03,23,12,41,7.50
2008,03,23,12,42,7.50
2008,03,23,12,43,7.40
2008,03,23,12,44,7.40
2008,03,23,12,45,7.50
2008,03,23,12,46,7.50
2008,03,23,12,47,7.60
2008,03,23,12,48,7.60
2008,03,23,12,49,7.60
2008,03,23,12,50,7.60
2008,03,23,12,51,7.60
2008,03,23,12,52,7.60
2008,03,23,12,53,7.60
2008,03,23,12,54,7.70
2008,03,23,12,55,7.70
2008,03,23,12,56,7.70
2008,03,23,12,57,7.80
2008,03,23,12,58,7.80
2008,03,23,12,59,7.80
2008,03,23,13,00,7.80
2008,03,23,13,01,7.80
2008,03,23,13,02,7.90
2008,03,23,13,03,7.90
2008,03,23,13,04,7.90
2008,03,23,13,05,7.90
2008,03,23,13,06,7.90
2008,03,23,13,07,7.90
2008,03,23,13,08,7.90
2008,03,23,13,09,8.00
2008,03,23,13,10,8.00
2008,03,23,13,11,8.10
2008,03,23,13,12,8.10
2008,03,23,13,13,8.20
2008,03,23,13,14,8.20
2008,03,23,13,15,8.30
2008,03,23,13,16,8.30
2008,03,23,13,17,8.40
2008,03,23,13,18,8.40
2008,03,23,13,19,8.40
2008,03,23,13,20,8.40
2008,03,23,13,21,8.40
2008,03,23,13,22,8.40
2008,03,23,13,23,8.30
2008,03,23,13,24,8.30
2008,03,23,13,25,8.30
2008,03,23,13,26,8.30
2008,03,23,13,27,8.30
2008,03,23,13,28,8.30
2008,03,23,13,29,8.30
2008,03,23,13,30,8.30
2008,03,23,13,31,8.30
2008,03,23,13,32,8.30
2008,03,23,13,33,8.30
2008,03,23,13,34,8.30
2008,03,23,13,35,8.30
2008,03,23,13,36,8.20
2008,03,23,13,37,8.20
2008,03,23,13,38,8.10
2008,03,23,13,39,8.10
2008,03,23,13,40,8.10
2008,03,23,13,41,8.00
2008,03,23,13,42,7.90
2008,03,23,13,43,7.90
2008,03,23,13,44,7.90
2008,03,23,13,45,7.90
2008,03,23,13,46,7.90
2008,03,23,13,47,7.90
2008,03,23,13,48,7.80
2008,03,23,13,49,7.80
2008,03,23,13,50,7.80
2008,03,23,13,51,7.80
2008,03,23,13,52,7.70
2008,03,23,13,53,7.70
2008,03,23,13,54,7.70
2008,03,23,13,55,7.70
2008,03,23,13,56,7.70
2008,03,23,13,57,7.70
2008,03,23,13,58,7.70
2008,03,23,13,59,7.70
2008,03,23,14,00,7.70
2008,03,23,14,01,7.70
2008,03,23,14,02,7.80
2008,03,23,14,03,7.80
2008,03,23,14,04,7.90
2008,03,23,14,05,7.90
2008,03,23,14,06,7.90
2008,03,23,14,07,7.90
2008,03,23,14,08,7.90
2008,03,23,14,09,7.80
2008,03,23,14,10,7.80
2008,03,23,14,11,7.80
2008,03,23,14,12,7.70
2008,03,23,14,13,7.70
2008,03,23,14,14,7.70
2008,03,23,14,15,7.80
2008,03,23,14,16,7.80
2008,03,23,14,17,7.90
2008,03,23,14,18,7.90
2008,03,23,14,19,8.00
2008,03,23,14,20,8.00
2008,03,23,14,21,8.10
2008,03,23,14,22,8.10
2008,03,23,14,23,8.10
2008,03,23,14,24,8.10
2008,03,23,14,25,8.10
2008,03,23,14,26,8.10
2008,03,23,14,27,8.10
2008,03,23,14,28,8.20
2008,03,23,14,29,8.20
2008,03,23,14,30,8.20
2008,03,23,14,31,8.20
2008,03,23,14,32,8.20
2008,03,23,14,33,8.30
2008,03,23,14,34,8.20
2008,03,23,14,35,8.20
2008,03,23,14,36,8.20
2008,03,23,14,37,8.20
2008,03,23,14,38,8.20
2008,03,23,14,39,8.20
2008,03,23,14,40,8.20
2008,03,23,14,41,8.20
2008,03,23,14,42,8.20
2008,03,23,14,43,8.20
2008,03,23,14,44,8.10
2008,03,23,14,45,8.00
2008,03,23,14,46,7.90
2008,03,23,14,47,7.80
2008,03,23,14,48,7.70
2008,03,23,14,49,7.60
2008,03,23,14,50,7.60
2008,03,23,14,51,7.50
2008,03,23,14,52,7.40
2008,03,23,14,53,7.30
2008,03,23,14,54,7.30
2008,03,23,14,55,7.20
2008,03,23,14,56,7.20
2008,03,23,14,57,7.20
2008,03,23,14,58,7.20
2008,03,23,14,59,7.20
2008,03,23,15,00,7.20
2008,03,23,15,01,7.20
2008,03,23,15,02,7.20
2008,03,23,15,03,7.20
2008,03,23,15,04,7.20
2008,03,23,15,05,7.20
2008,03,23,15,06,7.20
2008,03,23,15,07,7.20
2008,03,23,15,08,7.20
2008,03,23,15,09,7.10
2008,03,23,15,10,7.10
2008,03,23,15,11,7.10
2008,03,23,15,12,7.10
2008,03,23,15,13,7.10
2008,03,23,15,14,7.10
2008,03,23,15,15,7.10
2008,03,23,15,16,7.10
2008,03,23,15,17,7.00
2008,03,23,15,18,7.00
2008,03,23,15,19,7.00
2008,03,23,15,20,6.90
2008,03,23,15,21,6.90
2008,03,23,15,22,6.90
2008,03,23,15,23,6.90
2008,03,23,15,24,6.90
2008,03,23,15,25,6.90
2008,03,23,15,26,6.80
2008,03,23,15,27,6.80
2008,03,23,15,28,6.80
2008,03,23,15,29,6.80
2008,03,23,15,30,6.70
2008,03,23,15,31,6.70
2008,03,23,15,32,6.60
2008,03,23,15,33,6.50
2008,03,23,15,34,6.30
2008,03,23,15,35,6.20
2008,03,23,15,36,6.10
2008,03,23,15,37,5.90
2008,03,23,15,38,5.80
2008,03,23,15,39,5.60
2008,03,23,15,40,5.50
2008,03,23,15,41,5.40
2008,03,23,15,42,5.20
2008,03,23,15,43,5.10
2008,03,23,15,44,5.00
2008,03,23,15,45,4.90
2008,03,23,15,46,4.80
2008,03,23,15,47,4.70
2008,03,23,15,48,4.60
2008,03,23,15,49,4.50
2008,03,23,15,50,4.50
2008,03,23,15,51,4.40
2008,03,23,15,52,4.30
2008,03,23,15,53,4.30
2008,03,23,15,54,4.30
2008,03,23,15,55,4.30
2008,03,23,15,56,4.30
2008,03,23,15,57,4.30
2008,03,23,15,58,4.30
2008,03,23,15,59,4.30
2008,03,23,16,00,4.30
2008,03,23,16,01,4.30
2008,03,23,16,02,4.30
2008,03,23,16,03,4.30
2008,03,23,16,04,4.30
2008,03,23,16,05,4.30
2008,03,23,16,06,4.30
2008,03,23,16,07,4.40
2008,03,23,16,08,4.40
2008,03,23,16,09,4.50
2008,03,23,16,10,4.50
2008,03,23,16,11,4.60
2008,03,23,16,12,4.60
2008,03,23,16,13,4.60
2008,03,23,16,14,4.60
2008,03,23,16,15,4.60
2008,03,23,16,16,4.70
2008,03,23,16,17,4.80
2008,03,23,16,18,4.80
2008,03,23,16,19,4.90
2008,03,23,16,20,4.90
2008,03,23,16,21,5.00
2008,03,23,16,22,5.10
2008,03,23,16,23,5.20
2008,03,23,16,24,5.20
2008,03,23,16,25,5.20
2008,03,23,16,26,5.30
2008,03,23,16,27,5.40
2008,03,23,16,28,5.50
2008,03,23,16,29,5.50
2008,03,23,16,30,5.50
2008,03,23,16,31,5.50
2008,03,23,16,32,5.50
2008,03,23,16,33,5.60
2008,03,23,16,34,5.60
2008,03,23,16,35,5.70
2008,03,23,16,36,5.80
2008,03,23,16,37,5.80
2008,03,23,16,38,5.80
2008,03,23,16,39,5.80
2008,03,23,16,40,5.80
2008,03,23,16,41,5.70
2008,03,23,16,42,5.70
2008,03,23,16,43,5.70
2008,03,23,16,44,5.70
2008,03,23,16,45,5.80
2008,03,23,16,46,5.80
2008,03,23,16,47,5.90
2008,03,23,16,48,6.00
2008,03,23,16,49,6.10
2008,03,23,16,50,6.10
2008,03,23,16,51,6.20
2008,03,23,16,52,6.20
2008,03,23,16,53,6.40
2008,03,23,16,54,6.40
2008,03,23,16,55,6.50
2008,03,23,16,56,6.50
2008,03,23,16,57,6.60
2008,03,23,16,58,6.70
2008,03,23,16,59,6.70
2008,03,23,17,00,6.80
2008,03,23,17,01,6.80
2008,03,23,17,02,6.90
2008,03,23,17,03,6.80
2008,03,23,17,04,6.80
2008,03,23,17,05,6.80
2008,03,23,17,06,6.80
2008,03,23,17,07,6.80
2008,03,23,17,08,6.80
2008,03,23,17,09,6.80
2008,03,23,17,10,6.80
2008,03,23,17,11,6.80
2008,03,23,17,12,6.80
2008,03,23,17,13,6.80
2008,03,23,17,14,6.80
2008,03,23,17,15,6.80
2008,03,23,17,16,6.80
2008,03,23,17,17,6.80
2008,03,23,17,18,6.80
2008,03,23,17,19,6.80
2008,03,23,17,20,6.80
2008,03,23,17,21,6.70
2008,03,23,17,22,6.80
2008,03,23,17,23,6.80
2008,03,23,17,24,6.80
2008,03,23,17,25,6.80
2008,03,23,17,26,6.80
2008,03,23,17,27,6.80
2008,03,23,17,28,6.80
2008,03,23,17,29,6.80
2008,03,23,17,30,6.90
2008,03,23,17,31,6.90
2008,03,23,17,32,6.90
2008,03,23,17,33,6.90
2008,03,23,17,34,7.00
2008,03,23,17,35,6.90
2008,03,23,17,36,6.90
2008,03,23,17,37,6.90
2008,03,23,17,38,6.90
2008,03,23,17,39,6.90
2008,03,23,17,40,6.90
2008,03,23,17,41,6.90
2008,03,23,17,42,7.00
2008,03,23,17,43,7.00
2008,03,23,17,44,7.00
2008,03,23,17,45,7.00
2008,03,23,17,46,7.00
2008,03,23,17,47,7.00
2008,03,23,17,48,6.90
2008,03,23,17,49,6.90
2008,03,23,17,50,6.90
2008,03,23,17,51,7.00
2008,03,23,17,52,7.00
2008,03,23,17,53,7.00
2008,03,23,17,54,7.00
2008,03,23,17,55,7.00
2008,03,23,17,56,7.00
2008,03,23,17,57,7.00
2008,03,23,17,58,7.10
2008,03,23,17,59,7.10
2008,03,23,18,00,7.10
2008,03,23,18,01,7.20
2008,03,23,18,02,7.20
2008,03,23,18,03,7.20
2008,03,23,18,04,7.10
2008,03,23,18,05,7.00